TimeMST,TemperatureF,Dew PointF,Humidity,Sea Level PressureIn,VisibilityMPH,Wind Direction,Wind SpeedMPH,Gust SpeedMPH,PrecipitationIn,Events,Conditions,WindDirDegrees,DateUTC
12:53 AM,9.0,5.0,84,30.28,8.0,SE,3.5,-,N/A,,Overcast,130,2013-12-07 07:53:00
1:53 AM,10.0,6.1,84,30.24,9.0,Calm,Calm,-,N/A,,Overcast,0,2013-12-07 08:53:00
2:53 AM,12.0,8.1,84,30.22,10.0,Calm,Calm,-,N/A,,Overcast,0,2013-12-07 09:53:00
3:53 AM,10.9,7.0,84,30.21,10.0,Calm,Calm,-,N/A,,Overcast,0,2013-12-07 10:53:00
4:53 AM,12.0,9.0,88,30.17,10.0,Calm,Calm,-,N/A,,Overcast,0,2013-12-07 11:53:00
5:53 AM,12.9,8.1,81,30.15,10.0,Calm,Calm,-,N/A,,Overcast,0,2013-12-07 12:53:00
6:53 AM,14.0,9.0,80,30.12,10.0,SE,6.9,-,N/A,,Overcast,130,2013-12-07 13:53:00
7:53 AM,15.1,10.0,80,30.08,10.0,SE,8.1,-,N/A,,Overcast,130,2013-12-07 14:53:00
8:53 AM,17.1,10.9,77,30.05,10.0,ESE,11.5,-,N/A,,Overcast,110,2013-12-07 15:53:00
9:53 AM,17.1,12.0,81,30.04,10.0,South,3.5,-,N/A,,Overcast,180,2013-12-07 16:53:00
10:53 AM,19.0,12.9,77,30.01,10.0,Calm,Calm,-,N/A,,Overcast,0,2013-12-07 17:53:00
11:53 AM,21.9,14.0,72,29.93,10.0,SE,5.8,-,N/A,,Overcast,130,2013-12-07 18:53:00
12:53 PM,19.9,16.0,85,29.90,10.0,NW,8.1,-,N/A,,Overcast,310,2013-12-07 19:53:00
1:53 PM,19.0,16.0,88,29.88,10.0,NW,9.2,-,N/A,,Overcast,310,2013-12-07 20:53:00
2:53 PM,19.0,16.0,88,29.85,8.0,NW,6.9,-,N/A,,Overcast,310,2013-12-07 21:53:00
3:53 PM,19.9,18.0,92,29.85,10.0,West,8.1,-,N/A,,Overcast,280,2013-12-07 22:53:00
4:53 PM,19.9,18.0,92,29.84,3.0,NW,3.5,-,0.00,Snow,Light Snow,310,2013-12-07 23:53:00
5:53 PM,19.9,18.0,92,29.83,5.0,Calm,Calm,-,0.00,Snow,Light Snow,0,2013-12-08 00:53:00
6:53 PM,19.0,18.0,96,29.83,5.0,Calm,Calm,-,0.00,,Overcast,0,2013-12-08 01:53:00
7:26 PM,19.4,17.6,93,29.69,1.8,Calm,Calm,-,0.00,Snow,Light Snow,0,2013-12-08 02:26:00
7:35 PM,19.4,17.6,93,29.69,1.2,Calm,Calm,-,0.00,Snow,Light Snow,0,2013-12-08 02:35:00
7:53 PM,19.9,18.0,92,29.81,1.0,Calm,Calm,-,0.01,Snow,Light Snow,0,2013-12-08 02:53:00
8:24 PM,19.4,19.4,100,29.68,2.5,Calm,Calm,-,0.01,Snow,Light Snow,0,2013-12-08 03:24:00
8:33 PM,19.4,19.4,100,29.68,1.0,Calm,Calm,-,0.01,Snow,Light Snow,0,2013-12-08 03:33:00
8:41 PM,19.4,19.4,100,29.67,0.8,Calm,Calm,-,0.02,Snow,Light Snow,0,2013-12-08 03:41:00
8:49 PM,19.4,19.4,100,29.67,0.8,Calm,Calm,-,0.02,Snow,Light Snow,0,2013-12-08 03:49:00
8:53 PM,19.9,19.0,96,29.79,0.5,Calm,Calm,-,0.03,Fog-Snow,Snow,0,2013-12-08 03:53:00
9:00 PM,19.4,19.4,100,29.68,0.5,Calm,Calm,-,0.01,Fog-Snow,Snow,0,2013-12-08 04:00:00
9:07 PM,19.4,19.4,100,29.67,0.2,Calm,Calm,-,0.02,Fog-Snow,Heavy Snow,0,2013-12-08 04:07:00
9:16 PM,19.4,19.4,100,29.67,0.5,Calm,Calm,-,0.04,Fog-Snow,Snow,0,2013-12-08 04:16:00
9:53 PM,19.9,19.0,96,29.79,0.2,WNW,3.5,-,0.09,Fog-Snow,Heavy Snow,300,2013-12-08 04:53:00
10:00 PM,19.4,19.4,100,29.67,0.5,WNW,3.5,-,0.01,Fog-Snow,Snow,300,2013-12-08 05:00:00
10:53 PM,21.0,19.9,96,29.77,0.8,Calm,Calm,-,0.07,Snow,Light Snow,0,2013-12-08 05:53:00
10:56 PM,21.2,19.4,93,29.66,1.0,Calm,Calm,-,0.00,Snow,Light Snow,0,2013-12-08 05:56:00
11:22 PM,21.2,19.4,93,29.66,1.5,Calm,Calm,-,0.01,Snow,Light Snow,0,2013-12-08 06:22:00
11:33 PM,21.2,19.4,93,29.65,2.5,Calm,Calm,-,0.01,Snow,Light Snow,0,2013-12-08 06:33:00
11:48 PM,19.4,19.4,100,29.66,2.5,Calm,Calm,-,0.02,Snow,Light Snow,0,2013-12-08 06:48:00
11:53 PM,19.9,19.0,96,29.75,3.0,West,3.5,-,0.02,Snow,Light Snow,270,2013-12-08 06:53:00